Volver al catálogo

COSMOS 970 DEB

ActivoLEO
NORAD 10883·DEBRIS·🇷🇺 Russia

Lanzado Dec 21, 1977 desde Baikonur Cosmodrome

Loading…

Próximos Pases (próximas 24 horas)

TLE

ActualizadoSource: Space-Track

Época: Sep 14, 2026, 07:49 UTC

1 10883U 77121AE  26257.32596583  .00000139  00000-0  21591-3 0  9995
2 10883  65.8440   7.6049 0110998  49.6627 343.5950 13.76178790434567

Sigue COSMOS 970 DEB en tiempo real con AllMySat

Download on the App Store